Time,TemperatureF,DewpointF,PressureIn,WindDirection,WindDirectionDegrees,WindSpeedMPH,WindSpeedGustMPH,Humidity,HourlyPrecipIn,Conditions,Clouds,dailyrainin,SoftwareType,DateUTC
2013-05-24 00:01:00,47.7,47.5,29.45,SW,225,0.0,2.0,99,0.01,,,0.07,meteohub,2013-05-24 07:01:00,
2013-05-24 00:06:00,47.7,47.5,29.46,SW,225,0.0,2.0,99,0.01,,,0.07,meteohub,2013-05-24 07:06:00,
2013-05-24 00:11:00,47.5,47.3,29.45,South,180,0.0,2.0,99,0.01,,,0.07,meteohub,2013-05-24 07:11:00,
2013-05-24 00:16:00,47.5,47.3,29.46,South,180,0.0,2.0,99,0.02,,,0.08,meteohub,2013-05-24 07:16:00,
2013-05-24 00:21:00,47.5,47.3,29.45,South,180,3.0,3.0,99,0.02,,,0.08,meteohub,2013-05-24 07:21:00,
2013-05-24 00:26:00,47.5,47.3,29.46,South,180,2.0,3.0,99,0.02,,,0.08,meteohub,2013-05-24 07:26:00,
2013-05-24 00:31:00,47.5,47.3,29.45,SE,135,0.0,3.0,99,0.02,,,0.08,meteohub,2013-05-24 07:31:00,
2013-05-24 00:36:00,47.3,47.1,29.45,SW,225,2.0,3.0,99,0.01,,,0.08,meteohub,2013-05-24 07:36:00,
2013-05-24 00:41:00,47.3,47.1,29.45,SW,225,0.0,2.0,99,0.01,,,0.08,meteohub,2013-05-24 07:41:00,
2013-05-24 00:46:00,47.3,47.1,29.45,SE,135,0.0,2.0,99,0.01,,,0.08,meteohub,2013-05-24 07:46:00,
2013-05-24 00:51:00,47.3,47.1,29.45,SE,135,0.0,2.0,99,0.01,,,0.08,meteohub,2013-05-24 07:51:00,
2013-05-24 00:56:00,47.3,47.1,29.45,SE,135,0.0,0.0,99,0.01,,,0.08,meteohub,2013-05-24 07:56:00,
2013-05-24 01:01:00,47.1,46.9,29.45,East,90,2.0,0.0,99,0.01,,,0.08,meteohub,2013-05-24 08:01:00,
2013-05-24 01:06:00,47.1,46.9,29.45,SW,225,1.0,2.0,99,0.01,,,0.08,meteohub,2013-05-24 08:06:00,
2013-05-24 01:11:00,47.1,46.9,29.46,SE,135,2.0,2.0,99,0.01,,,0.08,meteohub,2013-05-24 08:11:00,
2013-05-24 01:16:00,47.1,46.9,29.45,SE,135,0.0,2.0,99,0.00,,,0.08,meteohub,2013-05-24 08:16:00,
2013-05-24 01:21:00,47.1,46.9,29.45,SE,135,0.0,2.0,99,0.00,,,0.08,meteohub,2013-05-24 08:21:00,
2013-05-24 01:26:00,47.1,46.9,29.45,NE,45,0.0,2.0,99,0.00,,,0.08,meteohub,2013-05-24 08:26:00,
2013-05-24 01:31:00,46.9,46.8,29.45,SE,135,0.0,1.0,99,0.01,,,0.09,meteohub,2013-05-24 08:31:00,
2013-05-24 01:37:00,46.9,46.8,29.45,SE,135,0.0,0.0,99,0.01,,,0.09,meteohub,2013-05-24 08:37:00,
2013-05-24 01:42:00,46.9,46.8,29.45,SW,225,2.0,0.0,99,0.01,,,0.09,meteohub,2013-05-24 08:42:00,
2013-05-24 01:47:00,46.9,46.8,29.45,South,180,2.0,2.0,99,0.01,,,0.09,meteohub,2013-05-24 08:47:00,
2013-05-24 01:52:00,46.9,46.8,29.45,SW,225,0.0,2.0,99,0.01,,,0.09,meteohub,2013-05-24 08:52:00,
2013-05-24 01:57:00,46.9,46.8,29.45,SW,225,1.0,2.0,99,0.01,,,0.09,meteohub,2013-05-24 08:57:00,
2013-05-24 02:02:00,46.9,46.8,29.44,SW,225,0.0,2.0,99,0.01,,,0.09,meteohub,2013-05-24 09:02:00,
2013-05-24 02:07:00,46.9,46.8,29.45,SE,135,0.0,2.0,99,0.01,,,0.09,meteohub,2013-05-24 09:07:00,
2013-05-24 02:12:00,46.9,46.8,29.45,South,180,0.0,2.0,99,0.01,,,0.09,meteohub,2013-05-24 09:12:00,
2013-05-24 02:17:00,47.1,46.9,29.45,South,180,0.0,0.0,99,0.01,,,0.09,meteohub,2013-05-24 09:17:00,
2013-05-24 02:22:00,47.1,46.9,29.45,SW,225,0.0,0.0,99,0.01,,,0.09,meteohub,2013-05-24 09:22:00,
2013-05-24 02:27:00,46.9,46.8,29.45,SW,225,2.0,0.0,99,0.00,,,0.09,meteohub,2013-05-24 09:27:00,
2013-05-24 02:32:00,46.9,46.8,29.45,SW,225,0.0,2.0,99,0.00,,,0.09,meteohub,2013-05-24 09:32:00,
2013-05-24 02:37:00,46.9,46.8,29.45,SW,225,0.0,2.0,99,0.00,,,0.09,meteohub,2013-05-24 09:37:00,
2013-05-24 02:42:00,46.9,46.8,29.45,SW,225,2.0,2.0,99,0.00,,,0.09,meteohub,2013-05-24 09:42:00,
2013-05-24 02:47:00,46.9,46.8,29.45,SW,225,2.0,3.0,99,0.00,,,0.09,meteohub,2013-05-24 09:47:00,
2013-05-24 02:52:00,46.9,46.8,29.45,SW,225,0.0,3.0,99,0.00,,,0.09,meteohub,2013-05-24 09:52:00,
2013-05-24 02:57:00,46.9,46.8,29.45,SW,225,0.0,3.0,99,0.00,,,0.09,meteohub,2013-05-24 09:57:00,
2013-05-24 03:02:00,46.9,46.8,29.45,SSW,203,0.0,2.0,99,0.00,,,0.09,meteohub,2013-05-24 10:02:00,
2013-05-24 03:07:00,46.9,46.8,29.45,South,180,0.0,2.0,99,0.00,,,0.09,meteohub,2013-05-24 10:07:00,
2013-05-24 03:12:00,46.9,46.8,29.45,South,180,0.0,0.0,99,0.00,,,0.09,meteohub,2013-05-24 10:12:00,
2013-05-24 03:17:00,46.9,46.8,29.45,SE,135,0.0,0.0,99,0.00,,,0.09,meteohub,2013-05-24 10:17:00,
2013-05-24 03:22:00,46.9,46.8,29.45,SE,135,0.0,0.0,99,0.00,,,0.09,meteohub,2013-05-24 10:22:00,
2013-05-24 03:27:00,46.9,46.8,29.45,SW,225,2.0,0.0,99,0.00,,,0.09,meteohub,2013-05-24 10:27:00,
2013-05-24 03:32:00,46.9,46.8,29.45,SW,225,3.0,3.0,99,0.00,,,0.09,meteohub,2013-05-24 10:32:00,
2013-05-24 03:37:00,46.8,46.6,29.46,SW,225,0.0,3.0,99,0.00,,,0.09,meteohub,2013-05-24 10:37:00,
2013-05-24 03:42:00,46.8,46.6,29.46,SW,225,3.0,3.0,99,0.00,,,0.09,meteohub,2013-05-24 10:42:00,
2013-05-24 03:47:00,46.8,46.6,29.46,South,180,0.0,6.0,99,0.00,,,0.09,meteohub,2013-05-24 10:47:00,
2013-05-24 03:52:00,46.9,46.8,29.46,NE,45,2.0,6.0,99,0.00,,,0.09,meteohub,2013-05-24 10:52:00,
2013-05-24 03:57:00,46.8,46.6,29.46,South,180,0.0,6.0,99,0.01,,,0.11,meteohub,2013-05-24 10:57:00,
2013-05-24 04:02:00,46.8,46.6,29.46,SW,225,0.0,2.0,99,0.01,,,0.11,meteohub,2013-05-24 11:02:00,
2013-05-24 04:07:00,46.8,46.6,29.45,South,180,0.0,2.0,99,0.01,,,0.11,meteohub,2013-05-24 11:07:00,
2013-05-24 04:12:00,46.8,46.6,29.46,SE,135,0.0,2.0,99,0.01,,,0.11,meteohub,2013-05-24 11:12:00,
2013-05-24 04:17:00,46.8,46.6,29.46,SE,135,0.0,1.0,99,0.01,,,0.11,meteohub,2013-05-24 11:17:00,
2013-05-24 04:22:00,46.8,46.6,29.46,North,0,1.0,1.0,99,0.01,,,0.11,meteohub,2013-05-24 11:22:00,
2013-05-24 04:27:00,46.6,46.4,29.46,North,0,0.0,2.0,99,0.01,,,0.11,meteohub,2013-05-24 11:27:00,
2013-05-24 04:32:00,46.6,46.4,29.46,North,0,0.0,2.0,99,0.01,,,0.11,meteohub,2013-05-24 11:32:00,
2013-05-24 04:37:00,46.8,46.6,29.46,NE,45,1.0,2.0,99,0.01,,,0.11,meteohub,2013-05-24 11:37:00,
2013-05-24 04:42:00,46.6,46.4,29.46,NE,45,0.0,2.0,99,0.01,,,0.11,meteohub,2013-05-24 11:42:00,
2013-05-24 04:47:00,46.6,46.4,29.46,North,0,0.0,2.0,99,0.01,,,0.11,meteohub,2013-05-24 11:47:00,
2013-05-24 04:52:00,46.6,46.4,29.46,East,90,1.0,2.0,99,0.01,,,0.11,meteohub,2013-05-24 11:52:00,
2013-05-24 04:57:00,46.4,46.2,29.46,South,180,1.0,2.0,99,0.00,,,0.11,meteohub,2013-05-24 11:57:00,
2013-05-24 05:02:00,46.4,46.2,29.46,SE,135,0.0,2.0,99,0.00,,,0.11,meteohub,2013-05-24 12:02:00,
2013-05-24 05:07:00,46.2,46.0,29.47,South,180,2.0,2.0,99,0.00,,,0.11,meteohub,2013-05-24 12:07:00,
2013-05-24 05:12:00,46.2,46.0,29.47,South,180,0.0,2.0,99,0.00,,,0.11,meteohub,2013-05-24 12:12:00,
2013-05-24 05:17:00,46.0,45.9,29.47,South,180,2.0,2.0,99,0.00,,,0.11,meteohub,2013-05-24 12:17:00,
2013-05-24 05:22:00,46.0,45.9,29.47,SE,135,0.0,2.0,99,0.00,,,0.11,meteohub,2013-05-24 12:22:00,
2013-05-24 05:27:00,46.0,45.9,29.47,SW,225,2.0,2.0,99,0.00,,,0.11,meteohub,2013-05-24 12:27:00,
2013-05-24 05:32:00,45.9,45.7,29.47,SW,225,2.0,2.0,99,0.00,,,0.11,meteohub,2013-05-24 12:32:00,
2013-05-24 05:37:00,45.5,45.3,29.47,SW,225,2.0,2.0,99,0.00,,,0.11,meteohub,2013-05-24 12:37:00,
2013-05-24 05:42:00,45.1,45.0,29.47,SW,225,0.0,2.0,99,0.00,,,0.11,meteohub,2013-05-24 12:42:00,
2013-05-24 05:47:00,45.0,44.8,29.47,SW,225,0.0,2.0,99,0.00,,,0.11,meteohub,2013-05-24 12:47:00,
2013-05-24 05:52:00,44.8,44.6,29.47,SW,225,2.0,2.0,99,0.00,,,0.11,meteohub,2013-05-24 12:52:00,
2013-05-24 05:57:00,44.8,44.6,29.47,SW,225,0.0,2.0,99,0.00,,,0.11,meteohub,2013-05-24 12:57:00,
2013-05-24 06:02:00,44.8,44.6,29.47,SW,225,0.0,2.0,99,0.00,,,0.11,meteohub,2013-05-24 13:02:00,
2013-05-24 06:07:00,44.8,44.6,29.47,West,270,2.0,2.0,99,0.00,,,0.11,meteohub,2013-05-24 13:07:00,
2013-05-24 06:12:00,44.8,44.6,29.48,West,270,0.0,4.0,99,0.00,,,0.11,meteohub,2013-05-24 13:12:00,
2013-05-24 06:17:00,44.8,44.6,29.47,SW,225,1.0,4.0,99,0.00,,,0.11,meteohub,2013-05-24 13:17:00,
2013-05-24 06:22:00,45.0,44.8,29.47,SW,225,0.0,4.0,99,0.00,,,0.11,meteohub,2013-05-24 13:22:00,
2013-05-24 06:27:00,45.3,45.1,29.48,North,0,1.0,4.0,99,0.00,,,0.11,meteohub,2013-05-24 13:27:00,
2013-05-24 06:32:00,45.7,45.5,29.48,North,0,0.0,3.0,99,0.00,,,0.11,meteohub,2013-05-24 13:32:00,
2013-05-24 06:37:00,46.4,46.2,29.48,North,0,0.0,2.0,99,0.00,,,0.11,meteohub,2013-05-24 13:37:00,
2013-05-24 06:42:00,46.9,46.8,29.49,North,0,2.0,2.0,99,0.00,,,0.11,meteohub,2013-05-24 13:42:00,
2013-05-24 06:47:00,47.3,47.1,29.49,NE,45,0.0,2.0,99,0.00,,,0.11,meteohub,2013-05-24 13:47:00,
2013-05-24 06:52:00,47.3,47.1,29.49,North,0,0.0,2.0,99,0.00,,,0.11,meteohub,2013-05-24 13:52:00,
2013-05-24 06:57:00,47.3,47.1,29.48,East,90,0.0,2.0,99,0.00,,,0.11,meteohub,2013-05-24 13:57:00,
2013-05-24 07:02:00,47.7,47.5,29.48,East,90,0.0,2.0,99,0.00,,,0.11,meteohub,2013-05-24 14:02:00,
2013-05-24 07:07:00,47.5,47.3,29.49,NE,45,2.0,2.0,99,0.00,,,0.11,meteohub,2013-05-24 14:07:00,
2013-05-24 07:12:00,47.5,47.3,29.49,NE,45,0.0,2.0,99,0.00,,,0.11,meteohub,2013-05-24 14:12:00,
2013-05-24 07:17:00,48.0,47.8,29.49,NE,45,2.0,2.0,99,0.00,,,0.11,meteohub,2013-05-24 14:17:00,
2013-05-24 07:22:00,48.4,48.2,29.49,NE,45,0.0,2.0,99,0.00,,,0.11,meteohub,2013-05-24 14:22:00,
2013-05-24 07:27:00,49.1,48.9,29.49,NE,45,3.0,3.0,99,0.00,,,0.11,meteohub,2013-05-24 14:27:00,
2013-05-24 07:32:00,49.3,49.1,29.49,NW,315,2.0,3.0,99,0.00,,,0.11,meteohub,2013-05-24 14:32:00,
2013-05-24 07:37:00,49.6,48.0,29.49,North,0,4.0,4.0,94,0.00,,,0.11,meteohub,2013-05-24 14:37:00,
2013-05-24 07:42:00,49.8,48.2,29.50,NE,45,6.0,6.0,94,0.00,,,0.11,meteohub,2013-05-24 14:42:00,
2013-05-24 07:47:00,49.8,47.8,29.50,SE,135,1.0,6.0,93,0.00,,,0.11,meteohub,2013-05-24 14:47:00,
2013-05-24 07:52:00,49.6,47.7,29.50,SE,135,5.0,6.0,93,0.00,,,0.11,meteohub,2013-05-24 14:52:00,
2013-05-24 07:57:00,49.1,46.9,29.50,SE,135,4.0,6.0,92,0.00,,,0.11,meteohub,2013-05-24 14:57:00,
2013-05-24 08:02:00,48.7,46.8,29.50,South,180,4.0,8.0,93,0.00,,,0.11,meteohub,2013-05-24 15:02:00,
2013-05-24 08:07:00,48.9,46.9,29.50,North,0,0.0,8.0,93,0.00,,,0.11,meteohub,2013-05-24 15:07:00,
2013-05-24 08:12:00,49.5,47.5,29.50,NNE,23,2.0,8.0,93,0.00,,,0.11,meteohub,2013-05-24 15:12:00,
2013-05-24 08:17:00,49.8,48.2,29.50,NE,45,2.0,4.0,94,0.00,,,0.11,meteohub,2013-05-24 15:17:00,
2013-05-24 08:22:00,50.0,48.0,29.50,SW,225,2.0,3.0,93,0.00,,,0.11,meteohub,2013-05-24 15:22:00,
2013-05-24 08:27:00,50.2,47.7,29.50,SE,135,2.0,4.0,91,0.00,,,0.11,meteohub,2013-05-24 15:27:00,
2013-05-24 08:32:00,49.8,47.3,29.50,SW,225,2.0,8.0,91,0.00,,,0.11,meteohub,2013-05-24 15:32:00,
2013-05-24 08:37:00,49.8,47.3,29.51,SW,225,3.0,8.0,91,0.00,,,0.11,meteohub,2013-05-24 15:37:00,
2013-05-24 08:42:00,49.6,47.1,29.51,SE,135,5.0,8.0,91,0.00,,,0.11,meteohub,2013-05-24 15:42:00,
2013-05-24 08:47:00,49.3,46.8,29.50,North,0,3.0,5.0,91,0.00,,,0.11,meteohub,2013-05-24 15:47:00,
2013-05-24 08:52:00,49.1,46.6,29.51,North,0,2.0,5.0,91,0.00,,,0.11,meteohub,2013-05-24 15:52:00,
2013-05-24 08:57:00,49.1,46.9,29.51,NE,45,1.0,5.0,92,0.00,,,0.11,meteohub,2013-05-24 15:57:00,
2013-05-24 09:02:00,49.1,46.9,29.51,West,270,0.0,3.0,92,0.00,,,0.11,meteohub,2013-05-24 16:02:00,
2013-05-24 09:07:00,49.3,47.3,29.51,NNE,23,4.0,4.0,93,0.00,,,0.11,meteohub,2013-05-24 16:07:00,
2013-05-24 09:12:00,49.3,47.3,29.51,SW,225,3.0,4.0,93,0.00,,,0.11,meteohub,2013-05-24 16:12:00,
2013-05-24 09:17:00,49.5,47.5,29.51,NE,45,2.0,4.0,93,0.00,,,0.11,meteohub,2013-05-24 16:17:00,
2013-05-24 09:22:00,49.5,47.5,29.51,NE,45,2.0,4.0,93,0.00,,,0.11,meteohub,2013-05-24 16:22:00,
2013-05-24 09:27:00,49.8,47.8,29.51,South,180,2.0,3.0,93,0.00,,,0.11,meteohub,2013-05-24 16:27:00,
2013-05-24 09:32:00,49.8,47.8,29.51,North,0,2.0,2.0,93,0.00,,,0.11,meteohub,2013-05-24 16:32:00,
2013-05-24 09:37:00,50.0,47.1,29.52,South,180,1.0,3.0,90,0.00,,,0.11,meteohub,2013-05-24 16:37:00,
2013-05-24 09:42:00,50.2,47.7,29.51,SW,225,1.0,4.0,91,0.00,,,0.11,meteohub,2013-05-24 16:42:00,
2013-05-24 09:47:00,50.4,47.3,29.51,South,180,2.0,4.0,89,0.00,,,0.11,meteohub,2013-05-24 16:47:00,
2013-05-24 09:52:00,50.4,46.9,29.51,SW,225,2.0,4.0,88,0.00,,,0.11,meteohub,2013-05-24 16:52:00,
2013-05-24 09:57:00,50.5,47.1,29.52,South,180,3.0,4.0,88,0.00,,,0.11,meteohub,2013-05-24 16:57:00,
2013-05-24 10:02:00,50.4,46.9,29.52,NE,45,8.0,8.0,88,0.00,,,0.11,meteohub,2013-05-24 17:02:00,
2013-05-24 10:07:00,50.2,46.2,29.52,SSE,158,5.0,8.0,86,0.00,,,0.11,meteohub,2013-05-24 17:07:00,
2013-05-24 10:12:00,50.2,46.4,29.52,SW,225,3.0,11.0,87,0.00,,,0.11,meteohub,2013-05-24 17:12:00,
2013-05-24 10:17:00,50.2,46.2,29.52,SW,225,3.0,11.0,86,0.00,,,0.11,meteohub,2013-05-24 17:17:00,
2013-05-24 10:22:00,50.0,45.7,29.52,SW,225,5.0,11.0,85,0.00,,,0.11,meteohub,2013-05-24 17:22:00,
2013-05-24 10:27:00,50.0,46.0,29.52,SW,225,4.0,10.0,86,0.00,,,0.11,meteohub,2013-05-24 17:27:00,
2013-05-24 10:32:00,50.2,45.9,29.52,South,180,5.0,10.0,85,0.00,,,0.11,meteohub,2013-05-24 17:32:00,
2013-05-24 10:37:00,51.3,46.9,29.52,SW,225,3.0,10.0,85,0.00,,,0.11,meteohub,2013-05-24 17:37:00,
2013-05-24 10:42:00,52.5,47.8,29.52,SW,225,2.0,7.0,84,0.00,,,0.11,meteohub,2013-05-24 17:42:00,
2013-05-24 10:47:00,53.2,48.2,29.53,North,0,5.0,5.0,83,0.00,,,0.11,meteohub,2013-05-24 17:47:00,
2013-05-24 10:52:00,53.6,47.8,29.52,East,90,2.0,5.0,81,0.00,,,0.11,meteohub,2013-05-24 17:52:00,
2013-05-24 10:57:00,53.8,47.8,29.52,NE,45,5.0,6.0,80,0.00,,,0.11,meteohub,2013-05-24 17:57:00,
2013-05-24 11:02:00,53.8,47.5,29.52,SW,225,4.0,8.0,79,0.00,,,0.11,meteohub,2013-05-24 18:02:00,
2013-05-24 11:07:00,53.1,46.8,29.53,North,0,4.0,8.0,79,0.00,,,0.11,meteohub,2013-05-24 18:07:00,
2013-05-24 11:12:00,52.9,46.6,29.53,SW,225,4.0,8.0,79,0.00,,,0.11,meteohub,2013-05-24 18:12:00,
2013-05-24 11:17:00,52.3,46.8,29.53,SE,135,3.0,8.0,81,0.00,,,0.11,meteohub,2013-05-24 18:17:00,
2013-05-24 11:22:00,52.3,46.9,29.53,East,90,3.0,5.0,82,0.00,,,0.11,meteohub,2013-05-24 18:22:00,
2013-05-24 11:27:00,52.2,46.2,29.53,SW,225,5.0,5.0,80,0.00,,,0.11,meteohub,2013-05-24 18:27:00,
2013-05-24 11:32:00,52.2,46.6,29.53,East,90,4.0,10.0,81,0.00,,,0.11,meteohub,2013-05-24 18:32:00,
2013-05-24 11:37:00,52.3,46.0,29.53,SE,135,9.0,10.0,79,0.00,,,0.11,meteohub,2013-05-24 18:37:00,
2013-05-24 11:42:00,52.3,46.0,29.52,South,180,4.0,10.0,79,0.00,,,0.11,meteohub,2013-05-24 18:42:00,
2013-05-24 11:47:00,52.5,46.2,29.53,SW,225,7.0,9.0,79,0.00,,,0.11,meteohub,2013-05-24 18:47:00,
2013-05-24 11:52:00,52.5,46.2,29.53,SW,225,7.0,9.0,79,0.00,,,0.11,meteohub,2013-05-24 18:52:00,
2013-05-24 11:57:00,53.4,46.8,29.53,East,90,4.0,8.0,78,0.00,,,0.11,meteohub,2013-05-24 18:57:00,
2013-05-24 12:02:00,53.6,46.9,29.53,South,180,5.0,7.0,78,0.00,,,0.11,meteohub,2013-05-24 19:02:00,
2013-05-24 12:07:00,53.8,47.1,29.52,South,180,4.0,7.0,78,0.00,,,0.11,meteohub,2013-05-24 19:07:00,
2013-05-24 12:12:00,53.6,46.9,29.53,SW,225,3.0,5.0,78,0.00,,,0.11,meteohub,2013-05-24 19:12:00,
2013-05-24 12:17:00,53.8,46.8,29.53,SE,135,4.0,7.0,77,0.00,,,0.11,meteohub,2013-05-24 19:17:00,
2013-05-24 12:22:00,54.0,46.9,29.53,SW,225,2.0,7.0,77,0.00,,,0.11,meteohub,2013-05-24 19:22:00,
2013-05-24 12:27:00,54.5,47.5,29.53,South,180,4.0,6.0,77,0.00,,,0.11,meteohub,2013-05-24 19:27:00,
2013-05-24 12:32:00,54.0,46.6,29.53,North,0,4.0,8.0,76,0.00,,,0.11,meteohub,2013-05-24 19:32:00,
2013-05-24 12:37:00,53.8,46.0,29.53,South,180,7.0,8.0,75,0.00,,,0.11,meteohub,2013-05-24 19:37:00,
2013-05-24 12:42:00,53.8,46.8,29.53,SW,225,6.0,8.0,77,0.00,,,0.11,meteohub,2013-05-24 19:42:00,
2013-05-24 12:47:00,54.5,47.1,29.53,West,270,3.0,8.0,76,0.00,,,0.11,meteohub,2013-05-24 19:47:00,
2013-05-24 12:52:00,54.9,46.8,29.53,South,180,7.0,8.0,74,0.00,,,0.11,meteohub,2013-05-24 19:52:00,
2013-05-24 12:57:00,54.7,47.3,29.53,SW,225,2.0,8.0,76,0.00,,,0.11,meteohub,2013-05-24 19:57:00,
2013-05-24 13:02:00,55.0,47.3,29.52,North,0,6.0,9.0,75,0.00,,,0.11,meteohub,2013-05-24 20:02:00,
2013-05-24 13:07:00,55.2,47.5,29.53,SE,135,4.0,9.0,75,0.00,,,0.11,meteohub,2013-05-24 20:07:00,
2013-05-24 13:12:00,55.4,48.0,29.53,SW,225,2.0,9.0,76,0.00,,,0.11,meteohub,2013-05-24 20:12:00,
2013-05-24 13:17:00,55.2,47.5,29.53,SW,225,4.0,8.0,75,0.00,,,0.11,meteohub,2013-05-24 20:17:00,
2013-05-24 13:22:00,55.8,47.7,29.52,SW,225,8.0,8.0,74,0.00,,,0.11,meteohub,2013-05-24 20:22:00,
2013-05-24 13:27:00,55.9,47.8,29.53,SW,225,5.0,8.0,74,0.00,,,0.11,meteohub,2013-05-24 20:27:00,
2013-05-24 13:32:00,55.6,47.5,29.53,North,0,4.0,8.0,74,0.00,,,0.11,meteohub,2013-05-24 20:32:00,
2013-05-24 13:37:00,55.8,48.0,29.53,North,0,2.0,8.0,75,0.00,,,0.11,meteohub,2013-05-24 20:37:00,
2013-05-24 13:42:00,56.3,47.8,29.53,East,90,5.0,6.0,73,0.00,,,0.11,meteohub,2013-05-24 20:42:00,
2013-05-24 13:47:00,56.1,47.3,29.53,SW,225,9.0,9.0,72,0.00,,,0.11,meteohub,2013-05-24 20:47:00,
2013-05-24 13:52:00,56.5,48.4,29.53,SW,225,2.0,9.0,74,0.00,,,0.11,meteohub,2013-05-24 20:52:00,
2013-05-24 13:57:00,57.7,49.1,29.53,SSW,203,3.0,9.0,73,0.00,,,0.11,meteohub,2013-05-24 20:57:00,
2013-05-24 14:02:00,57.9,48.2,29.53,SE,135,4.0,9.0,70,0.00,,,0.11,meteohub,2013-05-24 21:02:00,
2013-05-24 14:07:00,57.2,47.8,29.53,North,0,7.0,7.0,71,0.00,,,0.11,meteohub,2013-05-24 21:07:00,
2013-05-24 14:12:00,57.2,48.6,29.53,SE,135,2.0,8.0,73,0.00,,,0.11,meteohub,2013-05-24 21:12:00,
2013-05-24 14:17:00,57.0,48.4,29.53,SW,225,5.0,8.0,73,0.00,,,0.11,meteohub,2013-05-24 21:17:00,
2013-05-24 14:22:00,56.8,48.6,29.53,South,180,4.0,8.0,74,0.00,,,0.11,meteohub,2013-05-24 21:22:00,
2013-05-24 14:27:00,57.9,50.7,29.53,SE,135,4.0,6.0,77,0.00,,,0.11,meteohub,2013-05-24 21:27:00,
2013-05-24 14:32:00,59.2,49.8,29.53,South,180,4.0,6.0,71,0.00,,,0.11,meteohub,2013-05-24 21:32:00,
2013-05-24 14:37:00,58.8,49.5,29.53,SW,225,4.0,9.0,71,0.00,,,0.11,meteohub,2013-05-24 21:37:00,
2013-05-24 14:42:00,59.9,50.5,29.53,South,180,4.0,12.0,71,0.00,,,0.11,meteohub,2013-05-24 21:42:00,
2013-05-24 14:47:00,60.4,50.2,29.53,SW,225,4.0,12.0,69,0.00,,,0.11,meteohub,2013-05-24 21:47:00,
2013-05-24 14:52:00,60.4,49.8,29.53,SW,225,9.0,12.0,68,0.00,,,0.11,meteohub,2013-05-24 21:52:00,
2013-05-24 14:57:00,62.6,49.5,29.53,South,180,15.0,15.0,62,0.00,,,0.11,meteohub,2013-05-24 21:57:00,
2013-05-24 15:02:00,61.0,49.5,29.53,SW,225,5.0,15.0,66,0.00,,,0.11,meteohub,2013-05-24 22:02:00,
2013-05-24 15:07:00,61.2,50.2,29.53,SW,225,4.0,15.0,67,0.00,,,0.11,meteohub,2013-05-24 22:07:00,
2013-05-24 15:12:00,61.3,50.4,29.53,SW,225,3.0,15.0,67,0.00,,,0.11,meteohub,2013-05-24 22:12:00,
2013-05-24 15:17:00,59.9,48.6,29.53,SW,225,9.0,15.0,66,0.00,,,0.11,meteohub,2013-05-24 22:17:00,
2013-05-24 15:22:00,59.7,50.0,29.53,SW,225,3.0,10.0,70,0.00,,,0.11,meteohub,2013-05-24 22:22:00,
2013-05-24 15:27:00,60.4,49.5,29.53,South,180,7.0,10.0,67,0.00,,,0.11,meteohub,2013-05-24 22:27:00,
2013-05-24 15:32:00,60.1,49.1,29.53,SW,225,9.0,10.0,67,0.00,,,0.11,meteohub,2013-05-24 22:32:00,
2013-05-24 15:37:00,59.2,48.2,29.53,South,180,8.0,9.0,67,0.00,,,0.11,meteohub,2013-05-24 22:37:00,
2013-05-24 15:42:00,58.1,48.0,29.53,West,270,8.0,11.0,69,0.00,,,0.11,meteohub,2013-05-24 22:42:00,
2013-05-24 15:47:00,57.7,48.4,29.53,SW,225,8.0,11.0,71,0.00,,,0.11,meteohub,2013-05-24 22:47:00,
2013-05-24 15:52:00,57.9,48.9,29.53,West,270,8.0,11.0,72,0.00,,,0.11,meteohub,2013-05-24 22:52:00,
2013-05-24 15:57:00,57.9,48.2,29.53,SW,225,15.0,15.0,70,0.00,,,0.11,meteohub,2013-05-24 22:57:00,
2013-05-24 16:02:00,58.1,49.1,29.53,SW,225,8.0,15.0,72,0.00,,,0.11,meteohub,2013-05-24 23:02:00,
2013-05-24 16:07:00,57.9,48.2,29.53,SW,225,14.0,15.0,70,0.00,,,0.11,meteohub,2013-05-24 23:07:00,
2013-05-24 16:12:00,57.2,47.8,29.53,SW,225,8.0,17.0,71,0.00,,,0.11,meteohub,2013-05-24 23:12:00,
2013-05-24 16:17:00,58.1,48.7,29.53,SSE,158,4.0,17.0,71,0.00,,,0.11,meteohub,2013-05-24 23:17:00,
2013-05-24 16:22:00,58.3,49.3,29.53,SW,225,5.0,17.0,72,0.00,,,0.11,meteohub,2013-05-24 23:22:00,
2013-05-24 16:27:00,58.6,49.6,29.53,SW,225,6.0,11.0,72,0.00,,,0.11,meteohub,2013-05-24 23:27:00,
2013-05-24 16:32:00,57.6,47.8,29.53,SW,225,9.0,11.0,70,0.00,,,0.11,meteohub,2013-05-24 23:32:00,
2013-05-24 16:37:00,56.8,47.5,29.53,South,180,10.0,11.0,71,0.00,,,0.11,meteohub,2013-05-24 23:37:00,
2013-05-24 16:42:00,56.7,47.7,29.53,South,180,9.0,11.0,72,0.00,,,0.11,meteohub,2013-05-24 23:42:00,
2013-05-24 16:47:00,56.8,48.2,29.53,SW,225,8.0,11.0,73,0.00,,,0.11,meteohub,2013-05-24 23:47:00,
2013-05-24 16:52:00,57.0,49.1,29.53,SW,225,3.0,11.0,75,0.00,,,0.11,meteohub,2013-05-24 23:52:00,
2013-05-24 16:57:00,57.0,49.5,29.53,SW,225,4.0,9.0,76,0.00,,,0.11,meteohub,2013-05-24 23:57:00,
2013-05-24 17:02:00,56.8,50.0,29.53,SW,225,3.0,8.0,78,0.00,,,0.11,meteohub,2013-05-25 00:02:00,
2013-05-24 17:07:00,56.7,49.8,29.53,SW,225,3.0,7.0,78,0.00,,,0.00,meteohub,2013-05-25 00:07:00,
2013-05-24 17:12:00,57.0,50.2,29.53,South,180,2.0,7.0,78,0.00,,,0.00,meteohub,2013-05-25 00:12:00,
2013-05-24 17:17:00,57.0,49.8,29.53,South,180,4.0,5.0,77,0.00,,,0.00,meteohub,2013-05-25 00:17:00,
2013-05-24 17:22:00,56.5,48.9,29.53,South,180,7.0,7.0,76,0.00,,,0.00,meteohub,2013-05-25 00:22:00,
2013-05-24 17:27:00,55.8,49.3,29.53,SSW,203,7.0,7.0,79,0.00,,,0.00,meteohub,2013-05-25 00:27:00,
2013-05-24 17:32:00,54.5,49.1,29.54,SW,225,4.0,7.0,82,0.00,,,0.00,meteohub,2013-05-25 00:32:00,
2013-05-24 17:37:00,54.1,49.5,29.53,South,180,7.0,8.0,84,0.00,,,0.00,meteohub,2013-05-25 00:37:00,
2013-05-24 17:42:00,54.0,49.3,29.54,SW,225,8.0,8.0,84,0.00,,,0.00,meteohub,2013-05-25 00:42:00,
2013-05-24 17:47:00,54.5,49.8,29.53,SW,225,5.0,8.0,84,0.00,,,0.00,meteohub,2013-05-25 00:47:00,
2013-05-24 17:52:00,54.9,49.1,29.53,South,180,9.0,9.0,81,0.00,,,0.00,meteohub,2013-05-25 00:52:00,
2013-05-24 17:57:00,55.2,49.1,29.53,SW,225,9.0,9.0,80,0.00,,,0.00,meteohub,2013-05-25 00:57:00,
2013-05-24 18:02:00,55.0,48.9,29.53,SW,225,7.0,9.0,80,0.00,,,0.00,meteohub,2013-05-25 01:02:00,
2013-05-24 18:07:00,55.4,48.9,29.53,NW,315,9.0,11.0,79,0.00,,,0.00,meteohub,2013-05-25 01:07:00,
2013-05-24 18:12:00,55.9,49.1,29.53,South,180,6.0,11.0,78,0.00,,,0.00,meteohub,2013-05-25 01:12:00,
2013-05-24 18:17:00,55.6,48.6,29.53,South,180,8.0,11.0,77,0.00,,,0.00,meteohub,2013-05-25 01:17:00,
2013-05-24 18:22:00,55.2,48.2,29.53,SW,225,11.0,11.0,77,0.00,,,0.00,meteohub,2013-05-25 01:22:00,
2013-05-24 18:27:00,54.5,48.7,29.53,SW,225,8.0,11.0,81,0.00,,,0.00,meteohub,2013-05-25 01:27:00,
2013-05-24 18:32:00,53.6,49.5,29.53,SW,225,6.0,11.0,86,0.00,,,0.00,meteohub,2013-05-25 01:32:00,
2013-05-24 18:37:00,53.1,49.6,29.53,SW,225,2.0,11.0,88,0.00,,,0.00,meteohub,2013-05-25 01:37:00,
2013-05-24 18:42:00,54.0,50.5,29.53,SW,225,3.0,10.0,88,0.00,,,0.00,meteohub,2013-05-25 01:42:00,
2013-05-24 18:47:00,55.2,50.5,29.52,West,270,5.0,8.0,84,0.00,,,0.00,meteohub,2013-05-25 01:47:00,
2013-05-24 18:52:00,55.2,50.2,29.52,SW,225,5.0,5.0,83,0.00,,,0.00,meteohub,2013-05-25 01:52:00,
2013-05-24 18:57:00,54.7,49.3,29.52,SW,225,5.0,8.0,82,0.00,,,0.00,meteohub,2013-05-25 01:57:00,
2013-05-24 19:02:00,54.5,49.5,29.52,SW,225,4.0,8.0,83,0.00,,,0.00,meteohub,2013-05-25 02:02:00,
2013-05-24 19:07:00,54.0,48.9,29.52,SW,225,5.0,8.0,83,0.00,,,0.00,meteohub,2013-05-25 02:07:00,
2013-05-24 19:12:00,54.0,49.3,29.52,SW,225,4.0,11.0,84,0.00,,,0.00,meteohub,2013-05-25 02:12:00,
2013-05-24 19:17:00,54.0,48.9,29.52,NW,315,2.0,11.0,83,0.00,,,0.00,meteohub,2013-05-25 02:17:00,
2013-05-24 19:22:00,54.3,49.6,29.52,South,180,4.0,11.0,84,0.00,,,0.00,meteohub,2013-05-25 02:22:00,
2013-05-24 19:27:00,56.1,49.6,29.52,SW,225,5.0,6.0,79,0.00,,,0.00,meteohub,2013-05-25 02:27:00,
2013-05-24 19:32:00,56.1,49.3,29.52,SW,225,6.0,6.0,78,0.00,,,0.00,meteohub,2013-05-25 02:32:00,
2013-05-24 19:37:00,54.5,48.4,29.52,South,180,4.0,7.0,80,0.00,,,0.00,meteohub,2013-05-25 02:37:00,
2013-05-24 19:42:00,53.4,48.0,29.52,SW,225,8.0,8.0,82,0.00,,,0.00,meteohub,2013-05-25 02:42:00,
2013-05-24 19:47:00,53.1,48.0,29.52,South,180,5.0,8.0,83,0.00,,,0.00,meteohub,2013-05-25 02:47:00,
2013-05-24 19:52:00,52.5,47.8,29.52,South,180,4.0,8.0,84,0.00,,,0.00,meteohub,2013-05-25 02:52:00,
2013-05-24 19:57:00,52.3,47.7,29.52,SW,225,3.0,8.0,84,0.00,,,0.00,meteohub,2013-05-25 02:57:00,
2013-05-24 20:02:00,52.0,47.7,29.52,South,180,6.0,8.0,85,0.00,,,0.00,meteohub,2013-05-25 03:02:00,
2013-05-24 20:07:00,51.8,47.7,29.52,South,180,6.0,8.0,86,0.00,,,0.00,meteohub,2013-05-25 03:07:00,
2013-05-24 20:12:00,51.4,47.5,29.52,SW,225,3.0,8.0,86,0.00,,,0.00,meteohub,2013-05-25 03:12:00,
2013-05-24 20:17:00,50.9,47.1,29.52,South,180,4.0,8.0,87,0.00,,,0.00,meteohub,2013-05-25 03:17:00,
2013-05-24 20:22:00,50.7,46.9,29.53,South,180,6.0,8.0,87,0.00,,,0.00,meteohub,2013-05-25 03:22:00,
2013-05-24 20:27:00,50.5,46.8,29.53,South,180,4.0,8.0,87,0.00,,,0.00,meteohub,2013-05-25 03:27:00,
2013-05-24 20:32:00,50.5,46.8,29.53,South,180,6.0,11.0,87,0.00,,,0.00,meteohub,2013-05-25 03:32:00,
2013-05-24 20:37:00,50.4,46.6,29.53,SW,225,5.0,11.0,87,0.00,,,0.00,meteohub,2013-05-25 03:37:00,
2013-05-24 20:42:00,50.2,46.4,29.53,SW,225,2.0,11.0,87,0.00,,,0.00,meteohub,2013-05-25 03:42:00,
2013-05-24 20:47:00,49.6,46.2,29.53,SW,225,2.0,7.0,88,0.00,,,0.00,meteohub,2013-05-25 03:47:00,
2013-05-24 20:52:00,49.6,46.6,29.53,South,180,3.0,7.0,89,0.00,,,0.00,meteohub,2013-05-25 03:52:00,
2013-05-24 20:57:00,49.5,46.4,29.53,SW,225,5.0,6.0,89,0.00,,,0.00,meteohub,2013-05-25 03:57:00,
2013-05-24 21:01:00,49.5,46.4,29.53,SW,225,5.0,7.0,89,0.00,,,0.00,meteohub,2013-05-25 04:01:00,
2013-05-24 21:02:00,49.5,46.4,29.53,SW,225,4.0,7.0,89,0.00,,,0.00,meteohub,2013-05-25 04:02:00,
2013-05-24 21:03:00,49.5,46.4,29.54,South,180,5.0,7.0,89,0.00,,,0.00,meteohub,2013-05-25 04:03:00,
2013-05-24 21:07:00,49.3,46.2,29.53,SW,225,7.0,8.0,89,0.00,,,0.00,meteohub,2013-05-25 04:07:00,
2013-05-24 21:12:00,49.1,46.0,29.53,SW,225,4.0,8.0,89,0.00,,,0.00,meteohub,2013-05-25 04:12:00,
2013-05-24 21:17:00,49.1,46.0,29.54,South,180,2.0,8.0,89,0.00,,,0.00,meteohub,2013-05-25 04:17:00,
2013-05-24 21:22:00,48.6,45.5,29.54,SW,225,1.0,8.0,89,0.00,,,0.00,meteohub,2013-05-25 04:22:00,
2013-05-24 21:27:00,48.0,45.0,29.53,North,0,1.0,7.0,89,0.00,,,0.00,meteohub,2013-05-25 04:27:00,
2013-05-24 21:32:00,47.7,45.0,29.53,South,180,1.0,4.0,90,0.00,,,0.00,meteohub,2013-05-25 04:32:00,
2013-05-24 21:38:00,47.3,44.8,29.54,East,90,1.0,2.0,91,0.00,,,0.00,meteohub,2013-05-25 04:38:00,
2013-05-24 21:43:00,47.3,45.1,29.54,SW,225,1.0,2.0,92,0.00,,,0.00,meteohub,2013-05-25 04:43:00,
2013-05-24 21:48:00,47.3,45.3,29.54,South,180,5.0,5.0,93,0.00,,,0.00,meteohub,2013-05-25 04:48:00,
2013-05-24 21:53:00,47.5,45.5,29.54,SW,225,2.0,8.0,93,0.00,,,0.00,meteohub,2013-05-25 04:53:00,
2013-05-24 21:58:00,47.5,45.5,29.54,SW,225,3.0,8.0,93,0.00,,,0.00,meteohub,2013-05-25 04:58:00,
2013-05-24 22:03:00,47.7,45.7,29.54,South,180,1.0,8.0,93,0.00,,,0.00,meteohub,2013-05-25 05:03:00,
2013-05-24 22:08:00,47.5,45.5,29.54,South,180,2.0,4.0,93,0.00,,,0.00,meteohub,2013-05-25 05:08:00,
2013-05-24 22:13:00,47.5,45.5,29.54,SW,225,0.0,4.0,93,0.00,,,0.00,meteohub,2013-05-25 05:13:00,
2013-05-24 22:18:00,47.3,45.3,29.54,East,90,0.0,4.0,93,0.00,,,0.00,meteohub,2013-05-25 05:18:00,
2013-05-24 22:23:00,46.9,45.3,29.54,East,90,1.0,4.0,94,0.00,,,0.00,meteohub,2013-05-25 05:23:00,
2013-05-24 22:28:00,46.8,45.1,29.54,North,0,1.0,4.0,94,0.00,,,0.00,meteohub,2013-05-25 05:28:00,
2013-05-24 22:33:00,46.6,45.0,29.54,NE,45,2.0,2.0,94,0.00,,,0.00,meteohub,2013-05-25 05:33:00,
2013-05-24 22:38:00,46.6,45.1,29.54,NE,45,0.0,2.0,95,0.00,,,0.00,meteohub,2013-05-25 05:38:00,
2013-05-24 22:43:00,46.6,45.1,29.54,NE,45,0.0,2.0,95,0.00,,,0.00,meteohub,2013-05-25 05:43:00,
2013-05-24 22:48:00,46.6,45.1,29.54,North,0,0.0,2.0,95,0.00,,,0.00,meteohub,2013-05-25 05:48:00,
2013-05-24 22:53:00,46.2,44.6,29.54,NE,45,0.0,0.0,94,0.00,,,0.00,meteohub,2013-05-25 05:53:00,
2013-05-24 22:58:00,46.2,44.8,29.54,South,180,2.0,0.0,95,0.00,,,0.00,meteohub,2013-05-25 05:58:00,
2013-05-24 23:04:00,46.0,44.6,29.54,SW,225,1.0,2.0,95,0.00,,,0.00,meteohub,2013-05-25 06:04:00,
2013-05-24 23:09:00,45.9,44.4,29.54,South,180,2.0,2.0,95,0.00,,,0.00,meteohub,2013-05-25 06:09:00,
2013-05-24 23:14:00,45.9,44.8,29.54,SW,225,2.0,2.0,96,0.00,,,0.00,meteohub,2013-05-25 06:14:00,
2013-05-24 23:19:00,46.0,45.0,29.54,SW,225,2.0,2.0,96,0.00,,,0.00,meteohub,2013-05-25 06:19:00,
2013-05-24 23:24:00,46.2,45.1,29.54,SW,225,0.0,3.0,96,0.00,,,0.00,meteohub,2013-05-25 06:24:00,
2013-05-24 23:29:00,46.0,44.6,29.54,SW,225,0.0,3.0,95,0.00,,,0.00,meteohub,2013-05-25 06:29:00,
2013-05-24 23:34:00,45.7,44.4,29.54,NE,45,0.0,3.0,95,0.00,,,0.00,meteohub,2013-05-25 06:34:00,
2013-05-24 23:39:00,45.5,44.2,29.54,NE,45,0.0,3.0,95,0.00,,,0.00,meteohub,2013-05-25 06:39:00,
2013-05-24 23:44:00,45.5,44.4,29.54,NE,45,0.0,1.0,96,0.00,,,0.00,meteohub,2013-05-25 06:44:00,
2013-05-24 23:49:00,45.7,44.6,29.54,NE,45,0.0,1.0,96,0.00,,,0.00,meteohub,2013-05-25 06:49:00,
2013-05-24 23:54:00,45.9,45.1,29.54,NE,45,0.0,1.0,97,0.00,,,0.00,meteohub,2013-05-25 06:54:00,
2013-05-24 23:59:00,46.2,45.5,29.54,SW,225,0.0,3.0,97,0.00,,,0.00,meteohub,2013-05-25 06:59:00,